[[{"header":{"parameterUnit":"m.s-1","parameterCategory":1,"la1":30.2991,"la2":30.254,"lo1":-89.0895,"lo2":-89.0444,"dy":0.0017,"dx":0.0017,"nx":28,"ny":28,"refTime":"2023-09-07T03:00:00:Z","depth":0,"parameterNumber":2,"parameterNumberName":"U-component_of_WINDS"},"data":[0,0,0,0,0,0,0,0,0,0,0,0,0,0,0,0,0,0,0,0,0,0,0,0,0,0,0,0,0,0,0,0,0,0,0,0,0,0,0,0,0,0,0,0,0,0,0,0,0,0,0,0,0,0,0,0,0,0,3.7088,3.7089,0,3.7165,3.7166,3.7167,3.7042,3.7038,3.7033,3.7029,3.7112,3.7118,3.7124,0,0,0,0,0,0,0,0,0,0,0,0,0,3.6837,3.6843,3.7088,3.7089,3.709,3.7165,3.7166,3.7167,3.7043,3.7037,3.7032,3.7027,3.711,3.7117,3.7124,0,0,0,0,0,0,0,0,0,0,0,0,0,3.6934,3.6844,3.7088,3.7037,3.7033,3.7165,3.7166,3.7168,3.7044,3.7037,3.7031,3.7025,3.7107,3.7116,3.7125,3.7312,0,0,3.7154,3.7158,0,0,0,0,0,0,0,0,3.6928,3.6943,3.7043,3.704,3.7036,3.7087,3.7108,3.7216,3.7045,3.704,3.7029,3.7022,3.7109,3.7118,3.7146,3.7316,3.7319,3.7155,3.716,3.7164,3.7167,0,0,0,0,0,0,0,3.6922,3.6939,3.7118,3.7045,3.7041,3.7012,3.7018,3.7128,3.711,3.704,3.7031,3.7042,3.7106,3.7138,3.7148,3.7321,3.7154,3.7163,3.7168,3.7172,3.765,3.7657,0,0,0,0,0,0,3.6921,3.6934,3.7116,3.7121,3.6965,3.7021,3.7029,3.7078,3.7108,3.7107,3.7047,3.7035,3.7125,3.7137,3.715,3.7372,3.7164,3.7173,3.7178,3.7643,3.7652,3.766,0,0,0,0,0,0,3.6916,3.6938,3.7113,3.7025,3.7045,3.7032,3.7088,3.7082,3.7114,3.7114,3.711,3.7083,3.712,3.7137,3.7273,3.7373,3.7177,3.7186,3.7635,3.7646,3.7656,3.7817,0,0,0,0,0,0,3.6909,3.6937,3.7007,3.7028,3.705,3.7234,3.7094,3.7089,3.713,3.7116,3.7146,3.7145,3.7117,3.726,3.7282,3.7383,3.7193,3.7626,3.764,3.7652,3.7803,3.7832,3.7857,0,0,0,0,0,3.6901,3.7049,3.7011,3.7033,3.7137,3.724,3.7253,3.7216,3.7139,3.7209,3.721,3.7144,3.7359,3.7275,3.7299,3.7404,3.7619,3.7636,3.7651,3.7791,3.7827,3.7857,0,0,0,0,0,0,3.704,3.7051,3.7008,3.7167,3.7204,3.7218,3.7306,3.7255,3.7314,3.7299,3.7252,3.726,3.7407,3.7419,3.7325,3.7588,3.7476,3.7498,3.7574,3.7608,3.7635,3.7629,3.7201,0,0,0,0,0,3.709,3.7171,3.7176,3.7316,3.7337,3.7319,3.7362,3.7331,3.7367,3.7382,3.7392,3.7431,3.7507,3.7558,3.7628,3.7805,3.7811,3.7889,3.7916,3.7938,3.7957,3.8055,3.809,3.7712,3.7712,3.7712,0,0,3.7192,3.7208,3.7262,3.7345,3.7369,3.7456,3.7332,3.7429,3.7494,3.7397,3.7526,3.7536,3.7576,3.7734,3.7804,3.7748,3.8063,3.7959,3.7976,3.7984,3.8075,3.811,3.8142,3.7723,3.7721,3.772,0,0,3.7423,3.7443,3.7563,3.759,3.7629,3.7616,3.7646,3.7669,3.7671,3.78,3.773,3.7808,3.794,3.7972,3.8006,3.8254,3.8197,3.8278,3.842,3.8515,3.8545,3.8571,3.8661,3.8694,3.8297,3.8298,3.8298,0,3.7546,3.7673,3.7631,3.7734,3.7773,3.769,3.7812,3.7841,3.7902,3.7932,3.7868,3.8034,3.8055,3.8221,3.8282,3.8311,3.8345,3.8274,3.8544,3.8569,3.8593,3.8679,3.8713,3.8307,3.8306,3.8305,3.8304,0,3.7824,3.7914,3.8006,3.8066,3.8116,3.8228,3.8205,3.8261,3.8227,3.8223,3.8357,3.838,3.8454,3.8491,3.8459,3.8654,3.8619,3.8551,3.8438,3.864,3.8719,3.8752,3.8321,3.8318,3.8315,3.8313,0,0,3.8143,3.818,3.8215,3.8243,3.8281,3.835,3.846,3.8532,3.8583,3.8628,3.872,3.8836,3.8774,3.8812,3.8783,3.8867,3.9065,3.8788,3.8789,3.884,3.9284,3.9335,3.9374,3.9027,3.9033,3.9038,3.9281,0,3.8375,3.8563,3.853,3.8713,3.8797,3.8721,3.8817,3.8852,3.8852,3.8924,3.8924,3.9007,3.8918,3.8941,3.902,3.9024,3.9153,3.9006,3.9115,3.9119,3.9107,3.9415,3.9469,3.9697,3.9312,3.9317,3.9321,0,3.8669,3.8726,3.8918,3.8945,3.8979,3.9066,3.9131,3.9201,3.9241,3.9235,3.928,3.9236,3.9348,3.9235,3.939,3.929,3.9333,3.9342,3.935,3.9359,3.9232,3.9433,3.9768,3.9803,3.9369,3.9365,3.9362,0,3.8886,3.901,3.9141,3.9167,3.9201,3.9265,3.9283,3.9315,3.9362,3.942,3.945,3.9521,3.956,3.9617,3.9594,3.9513,3.9756,3.9639,3.9755,3.9756,3.9809,3.9806,4.0157,3.9837,3.9836,3.9835,3.9835,0,3.9148,3.9269,3.9239,3.932,3.9454,3.9416,3.9551,3.956,3.9591,3.9674,3.9612,3.9692,3.9657,3.9735,3.9719,3.9851,3.9869,3.9869,3.9863,3.9875,3.9875,3.9902,3.9886,3.9844,3.9843,3.9841,3.9839,0,3.9411,3.9396,3.9534,3.9556,3.9565,3.9664,3.9683,3.9761,3.9756,3.9862,3.9885,3.9879,3.9968,3.9952,4.005,4.0039,4.0206,4.018,4.0192,4.0186,4.0304,4.0294,4.0685,4.0735,4.0382,4.0385,4.0388,0,3.958,3.9671,3.9704,3.9754,3.9777,3.986,3.9907,3.9875,3.9927,3.9981,4.0053,4.0136,4.0201,4.0348,4.0354,4.043,4.0406,4.0538,4.0417,4.0427,4.0409,4.0404,4.0414,4.0562,4.0566,4.0569,4.0572,0,3.9881,3.987,3.994,4.0009,4.0068,4.012,4.0168,4.0213,4.0185,4.0248,4.0338,4.0389,4.049,4.0575,4.0646,4.0666,4.0617,4.061,4.0641,4.0654,4.0658,4.0659,4.0259,4.0601,4.0598,4.0596,4.0594,4.0593,4.0103,4.0182,4.0217,4.0299,4.0331,4.0377,4.0451,4.0457,4.0531,4.061,4.0587,4.0691,4.0731,4.0822,4.085,4.0932,4.0883,4.0928,4.0939,4.0951,4.0966,4.0645,4.0945,4.0944,4.0943,4.0943,4.0942,0,4.0402,4.0422,4.0497,4.0565,4.063,4.0576,4.0627,4.0685,4.0776,4.0818,4.0884,4.0989,4.1072,4.1085,4.1164,4.1228,4.1207,4.125,4.1245,4.1251,4.1004,4.097,4.1265,4.1265,4.1265,4.1265,4.1265,4.1265,4.0566,4.0696,4.069,4.0837,4.0856,4.0956,4.099,4.1034,4.1067,4.1187,4.1255,4.1263,4.1294,4.1376,4.145,4.1452,4.1485,4.1537,4.153,4.13,4.1268,4.1237,4.1205,4.1544,4.1545,4.177,4.1772,4.1773]},{"header":{"parameterUnit":"m.s-1","parameterCategory":1,"la1":30.2991,"la2":30.254,"lo1":-89.0895,"lo2":-89.0444,"dy":0.0017,"dx":0.0017,"nx":28,"ny":28,"refTime":"2023-09-07T03:00:00:Z","depth":0,"parameterNumber":3,"parameterNumberName":"V-component_of_WINDS"},"data":[0,0,0,0,0,0,0,0,0,0,0,0,0,0,0,0,0,0,0,0,0,0,0,0,0,0,0,0,0,0,0,0,0,0,0,0,0,0,0,0,0,0,0,0,0,0,0,0,0,0,0,0,0,0,0,0,0,0,-2.312,-2.3122,0,-2.325,-2.3252,-2.3253,-2.3327,-2.3328,-2.3328,-2.3328,-2.3456,-2.3459,-2.3462,0,0,0,0,0,0,0,0,0,0,0,0,0,-2.293,-2.2933,-2.312,-2.3122,-2.3123,-2.325,-2.3252,-2.3254,-2.3327,-2.3328,-2.3328,-2.3328,-2.3454,-2.3458,-2.3462,0,0,0,0,0,0,0,0,0,0,0,0,0,-2.3031,-2.2934,-2.312,-2.3176,-2.3182,-2.325,-2.3252,-2.3254,-2.3327,-2.3328,-2.3328,-2.3329,-2.3453,-2.3458,-2.3462,-2.3483,0,0,-2.3477,-2.3479,0,0,0,0,0,0,0,0,-2.3026,-2.3038,-2.3166,-2.3172,-2.3179,-2.3273,-2.3232,-2.3331,-2.3327,-2.3272,-2.3328,-2.3329,-2.3394,-2.3404,-2.3427,-2.3489,-2.3495,-2.3477,-2.348,-2.3482,-2.3483,0,0,0,0,0,0,0,-2.3018,-2.3033,-2.3172,-2.3168,-2.3176,-2.3192,-2.3207,-2.3251,-2.3329,-2.3277,-2.3283,-2.3297,-2.3398,-2.3422,-2.3431,-2.3496,-2.3477,-2.3481,-2.3484,-2.3486,-2.3582,-2.3581,0,0,0,0,0,0,-2.3003,-2.3027,-2.3167,-2.3176,-2.3102,-2.3195,-2.3212,-2.3243,-2.3329,-2.3342,-2.3297,-2.33,-2.3414,-2.3425,-2.3435,-2.3465,-2.3482,-2.3486,-2.3489,-2.3582,-2.3582,-2.3581,0,0,0,0,0,0,-2.2999,-2.3015,-2.3162,-2.3103,-2.3123,-2.3198,-2.3232,-2.3245,-2.327,-2.3344,-2.3358,-2.3308,-2.3415,-2.3429,-2.3471,-2.3471,-2.3489,-2.3493,-2.3582,-2.3582,-2.3581,-2.3525,0,0,0,0,0,0,-2.2993,-2.3013,-2.3023,-2.3103,-2.3126,-2.3197,-2.3232,-2.3247,-2.3278,-2.3284,-2.3358,-2.337,-2.3416,-2.3464,-2.3476,-2.3477,-2.3496,-2.3583,-2.3582,-2.3582,-2.3527,-2.3522,-2.3519,0,0,0,0,0,-2.2986,-2.3001,-2.3023,-2.304,-2.314,-2.3197,-2.321,-2.3264,-2.3278,-2.3288,-2.3335,-2.3368,-2.3469,-2.3467,-2.3482,-2.3485,-2.3583,-2.3582,-2.3582,-2.3529,-2.3523,-2.3519,0,0,0,0,0,0,-2.2917,-2.3012,-2.3038,-2.3079,-2.313,-2.321,-2.3224,-2.3257,-2.3303,-2.3306,-2.337,-2.3386,-2.3422,-2.3458,-2.3454,-2.3509,-2.3529,-2.3531,-2.3484,-2.348,-2.3476,-2.3466,-2.35,0,0,0,0,0,-2.2907,-2.2947,-2.3027,-2.3056,-2.308,-2.3147,-2.3174,-2.3212,-2.3266,-2.3287,-2.3338,-2.3387,-2.343,-2.3457,-2.3501,-2.3533,-2.3549,-2.3542,-2.3537,-2.3534,-2.3534,-2.3553,-2.3551,-2.3579,-2.3579,-2.3579,0,0,-2.2886,-2.2943,-2.2964,-2.3043,-2.3087,-2.3126,-2.3165,-2.3204,-2.3233,-2.3292,-2.3336,-2.3375,-2.3434,-2.3472,-2.349,-2.3502,-2.353,-2.3533,-2.3529,-2.3532,-2.3553,-2.355,-2.3547,-2.3579,-2.3579,-2.3579,0,0,-2.2867,-2.2914,-2.2943,-2.2987,-2.3053,-2.3098,-2.3104,-2.318,-2.3209,-2.3254,-2.3299,-2.3334,-2.3406,-2.3447,-2.3477,-2.3474,-2.3505,-2.3486,-2.3464,-2.3481,-2.3479,-2.3477,-2.3475,-2.3474,-2.3487,-2.3487,-2.3486,0,-2.2831,-2.2894,-2.2953,-2.2991,-2.3024,-2.3082,-2.311,-2.3149,-2.3225,-2.3246,-2.3259,-2.3352,-2.3396,-2.3443,-2.3442,-2.3465,-2.3473,-2.3477,-2.3475,-2.3474,-2.3473,-2.3472,-2.3471,-2.3484,-2.3484,-2.3484,-2.3485,0,-2.2846,-2.2888,-2.2904,-2.2978,-2.3013,-2.3045,-2.3108,-2.3136,-2.3171,-2.3213,-2.3258,-2.3313,-2.3369,-2.3383,-2.3416,-2.3435,-2.3441,-2.3463,-2.3485,-2.3467,-2.3467,-2.3467,-2.348,-2.3481,-2.3482,-2.3482,0,0,-2.2787,-2.2895,-2.2899,-2.2934,-2.3011,-2.3044,-2.3079,-2.3135,-2.3157,-2.3208,-2.3237,-2.3298,-2.332,-2.3354,-2.3392,-2.3408,-2.3401,-2.3429,-2.3431,-2.3421,-2.3424,-2.3406,-2.3404,-2.3423,-2.3423,-2.3423,-2.3419,0,-2.2779,-2.2846,-2.2901,-2.2947,-2.2986,-2.3041,-2.3071,-2.3121,-2.3162,-2.32,-2.3244,-2.3286,-2.3312,-2.3333,-2.3351,-2.3398,-2.3402,-2.3399,-2.3449,-2.345,-2.3432,-2.3405,-2.3386,-2.3379,-2.3419,-2.3419,-2.3419,0,-2.2778,-2.2828,-2.2878,-2.2952,-2.2971,-2.2997,-2.3053,-2.3089,-2.3146,-2.3175,-2.3213,-2.3254,-2.3291,-2.3309,-2.3361,-2.3357,-2.3381,-2.3407,-2.3408,-2.3414,-2.3433,-2.3409,-2.3378,-2.3376,-2.342,-2.342,-2.342,0,-2.2728,-2.2809,-2.2849,-2.2877,-2.2964,-2.2981,-2.3018,-2.3076,-2.3106,-2.3155,-2.3175,-2.3226,-2.3254,-2.3292,-2.3345,-2.3353,-2.339,-2.3413,-2.3413,-2.3412,-2.3418,-2.3416,-2.3389,-2.3434,-2.3434,-2.3434,-2.3434,0,-2.2713,-2.2741,-2.2828,-2.2853,-2.2886,-2.2948,-2.2978,-2.302,-2.3071,-2.3103,-2.3154,-2.3183,-2.3251,-2.3288,-2.3329,-2.3365,-2.3377,-2.34,-2.341,-2.3395,-2.3392,-2.341,-2.3412,-2.3434,-2.3434,-2.3434,-2.3434,0,-2.2663,-2.2723,-2.277,-2.285,-2.287,-2.2891,-2.2958,-2.2983,-2.3027,-2.3068,-2.308,-2.3149,-2.3195,-2.3252,-2.3315,-2.3342,-2.3374,-2.339,-2.3355,-2.3361,-2.3358,-2.3357,-2.3341,-2.3341,-2.3386,-2.3386,-2.3385,0,-2.2648,-2.2672,-2.2754,-2.2781,-2.2817,-2.2858,-2.289,-2.2952,-2.2983,-2.305,-2.3067,-2.3117,-2.316,-2.3231,-2.3285,-2.3333,-2.3351,-2.3342,-2.3358,-2.3342,-2.3349,-2.3347,-2.3349,-2.3337,-2.3336,-2.3335,-2.3335,0,-2.2616,-2.2645,-2.269,-2.2745,-2.2783,-2.2829,-2.2877,-2.2895,-2.2966,-2.2998,-2.3047,-2.3081,-2.3146,-2.3195,-2.3251,-2.3287,-2.3322,-2.333,-2.3332,-2.3316,-2.3294,-2.3305,-2.3342,-2.3329,-2.333,-2.333,-2.3331,-2.3331,-2.2583,-2.2607,-2.2668,-2.2717,-2.276,-2.2804,-2.2832,-2.288,-2.2922,-2.2982,-2.3016,-2.3063,-2.3119,-2.3198,-2.3233,-2.3269,-2.3282,-2.3286,-2.3287,-2.3286,-2.3281,-2.329,-2.328,-2.328,-2.328,-2.328,-2.3281,0,-2.2553,-2.2596,-2.264,-2.2707,-2.2744,-2.2777,-2.2832,-2.2861,-2.2902,-2.2953,-2.2995,-2.305,-2.3098,-2.3157,-2.3208,-2.3226,-2.3243,-2.3237,-2.3235,-2.3243,-2.3267,-2.326,-2.3222,-2.3222,-2.3222,-2.3222,-2.3222,-2.3222,-2.2542,-2.2583,-2.2619,-2.2681,-2.2723,-2.2772,-2.28,-2.284,-2.2881,-2.2941,-2.2982,-2.3021,-2.3074,-2.313,-2.3174,-2.319,-2.3206,-2.3194,-2.3215,-2.3236,-2.3241,-2.3246,-2.3239,-2.3198,-2.3198,-2.3187,-2.3187,-2.3187]}]]